Regional Weather Roundup
Issued by NWS Charleston, WV

Home | Current Version | Previous Version | Graphics & Text | Print | Product List | Glossary On
Versions: 1 2 3 4 5 6 7 8 9 10 11 12 13 14 15 16 17 18 19 20 21 22 23 24 25 26 27
000
ASUS41 KRLX 150310
RWRRLX
West Virginia Regional Weather Roundup
National Weather Service Charleston WV
1000 PM EST THU DEC 14 2017

Note: "fair" indicates few or no clouds below 12,000 feet with no
significant weather and/or obstructions to visibility.

WVZ003-150400-
Northern Panhandle of West Virginia

CITY           SKY/WX    TMP DP  RH WIND       PRES   REMARKS
WHEELING       PTCLDY    21  11  65 CALM      30.04S
$$

WVZ009-150400-
Northwest West Virginia

CITY           SKY/WX    TMP DP  RH WIND       PRES   REMARKS
PARKERSBURG    CLOUDY    24  16  71 CALM      30.09S
$$

WVZ006-150400-
Western West Virginia

CITY           SKY/WX    TMP DP  RH WIND       PRES   REMARKS
HUNTINGTON     PTCLDY    28  15  58 NE6       30.06F
$$

WVZ015-150400-
West Central West Virginia

CITY           SKY/WX    TMP DP  RH WIND       PRES   REMARKS
CHARLESTON     CLOUDY    29  19  66 CALM      30.04F
$$

WVZ022-031-150400-
North Central West Virginia

CITY           SKY/WX    TMP DP  RH WIND       PRES   REMARKS
CLARKSBURG     CLOUDY    28  21  75 CALM      30.04S
MORGANTOWN     CLOUDY    25  16  68 CALM      30.05R
$$

WVZ025-035-042-045-150400-
Southern West Virginia

CITY           SKY/WX    TMP DP  RH WIND       PRES   REMARKS
BECKLEY        CLEAR     25  18  74 CALM      29.96R
LOGAN          CLOUDY    30  21  69 CALM      30.00S
BLUEFIELD      MOCLDY    26  19  74 N3        29.96R
LEWISBURG      PTCLDY    26  19  77 CALM      29.97F
$$

WVZ047-150400-
Northern Mountains of West Virginia

CITY           SKY/WX    TMP DP  RH WIND       PRES   REMARKS
ELKINS         CLOUDY    26  20  77 CALM      30.00R
$$

WVZ052-150400-
Eastern Panhandle of West Virginia

CITY           SKY/WX    TMP DP  RH WIND       PRES   REMARKS
MARTINSBURG    PTCLDY    26  11  52 N10       30.07F
PETERSBURG     CLOUDY    29  19  67 SE6       30.05R
$$




USA.gov is the U.S. government's official web portal to all federal, state and local government web resources and services.